Norfolk Island Observation History
Time Wind Speed Temp Pressure Rel. Hum Rain
03/05:00am NW 8-14 kts 19.0°c 1014.4 hPa 88% 1.8mm
03/04:30am NW 8-13 kts 19.2°c 1014.0 hPa 89% 1.8mm
03/04:00am NW 9-17 kts 19.2°c 1014.0 hPa 88% 1.8mm
03/03:51am NW 10-17 kts 19.2°c 1013.9 hPa 88% 1.8mm
03/03:30am NW 11-18 kts 19.4°c 1014.0 hPa 89% 1.8mm
03/03:00am NW 13-19 kts 19.8°c 1014.1 hPa 91% 1.8mm
03/02:30am NW 10-18 kts 19.8°c 1014.1 hPa 92% 1.8mm
03/02:27am NNW 10-18 kts 19.8°c 1014.1 hPa 92% 1.8mm
03/02:22am NNW 10-16 kts 19.7°c 1014.0 hPa 93% 1.8mm
03/02:00am NNW 8-15 kts 19.8°c 1014.0 hPa 93% 1.8mm
03/01:30am NNW 9-16 kts 19.9°c 1014.5 hPa 93% 1.8mm
03/01:00am NNW 9-16 kts 19.9°c 1015.2 hPa 93% 1.8mm
03/12:30am N 11-19 kts 19.8°c 1016.1 hPa 94% 1.8mm
03/12:00am NNE 11-15 kts 19.3°c 1015.9 hPa 93% 1.8mm
Time Wind Speed Temp Pressure Rel. Hum Rain
02/11:30pm NE 11-17 kts 19.0°c 1016.3 hPa 93% 1.8mm
02/11:00pm NE 9-15 kts 18.5°c 1016.8 hPa 93% 1.8mm
02/10:30pm NE 11-15 kts 18.2°c 1017.2 hPa 93% 1.8mm
02/10:03pm NE 13-17 kts 17.9°c 1017.4 hPa 93% 1.8mm
02/10:00pm NE 13-17 kts 17.9°c 1017.4 hPa 93% 1.8mm
02/09:39pm NE 14-19 kts 17.8°c 1017.7 hPa 93% 1.8mm
02/09:30pm NE 13-17 kts 17.7°c 1017.9 hPa 93% 1.8mm
02/09:25pm NE 13-18 kts 17.6°c 1017.9 hPa 93% 1.8mm
02/09:20pm NE 12-18 kts 17.5°c 1017.9 hPa 93% 1.8mm
02/09:00pm NNE 11-15 kts 17.6°c 1018.2 hPa 92% 1.6mm
02/08:42pm NNE 14-21 kts 17.8°c 1018.3 hPa 91% 0.6mm
02/08:37pm NNE 14-21 kts 18.0°c 1018.4 hPa 90% 0.0mm
02/08:30pm NNE 12-18 kts 18.3°c 1018.2 hPa 89% 0.0mm
02/08:00pm NNE 11-17 kts 18.7°c 1018.5 hPa 88% 0.0mm
02/07:30pm NNE 11-18 kts 18.8°c 1018.6 hPa 86% 0.0mm
02/07:05pm NNE 9-14 kts 18.7°c 1018.8 hPa 87% 0.0mm
02/07:00pm NNE 10-15 kts 18.8°c 1018.7 hPa 87% 0.0mm
02/06:58pm NNE 11-15 kts 18.8°c 1018.7 hPa 86% 0.0mm
02/06:30pm NNE 12-20 kts 19.5°c 1018.7 hPa 84% 0.0mm
02/06:26pm NE 10-17 kts 19.6°c 1018.7 hPa 84% 0.0mm
02/06:00pm NE 11-14 kts 19.6°c 1018.7 hPa 82% 0.0mm
02/05:30pm NE 12-17 kts 19.5°c 1018.6 hPa 81% 0.0mm
02/05:00pm NE 11-16 kts 19.5°c 1018.5 hPa 79% 0.0mm
02/04:30pm NNE 10-15 kts 19.5°c 1018.6 hPa 76% 0.0mm
02/04:00pm NE 10-15 kts 19.4°c 1018.5 hPa 74% 0.0mm
02/03:30pm NNE 9-15 kts 19.4°c 1018.5 hPa 71% 0.0mm
02/03:00pm NNE 9-13 kts 19.6°c 1018.4 hPa 70% 0.0mm
02/02:30pm NNE 11-15 kts 19.8°c 1018.4 hPa 70% 0.0mm
02/02:00pm NNE 10-16 kts 20.1°c 1018.6 hPa 67% 0.0mm
02/01:30pm NNE 10-15 kts 20.2°c 1018.6 hPa 64% 0.0mm
02/01:00pm NNE 10-14 kts 20.5°c 1018.7 hPa 63% 0.0mm
02/12:30pm NNE 10-17 kts 20.6°c 1019.0 hPa 61% 0.0mm
02/12:00pm NNE 7-10 kts 20.8°c 1019.3 hPa 60% 0.0mm
02/11:30am N 7-11 kts 20.5°c 1019.7 hPa 57% 0.0mm
02/11:00am N 7-12 kts 20.9°c 1020.3 hPa 58% 0.0mm
02/10:30am NNE 8-16 kts 20.4°c 1020.8 hPa 56% 0.0mm
02/10:00am N 7-11 kts 20.6°c 1021.3 hPa 58% 0.0mm
02/09:30am NNE 9-14 kts 20.3°c 1021.6 hPa 57% 0.0mm
02/09:00am NNE 8-14 kts 20.1°c 1021.8 hPa 57% 0.0mm
02/08:30am NNE 8-14 kts 19.7°c 1021.8 hPa 61% 0.0mm
02/08:00am NNE 7-9 kts 18.8°c 1021.8 hPa 67% 0.2mm
02/07:30am NE 6-10 kts 18.2°c 1021.9 hPa 72% 0.2mm
02/07:00am NE 4-5 kts 16.9°c 1021.7 hPa 76% 0.2mm
02/06:30am N 2-4 kts 15.9°c 1021.6 hPa 78% 0.2mm
02/06:00am CALM 0-3 kts 15.2°c 1021.4 hPa 75% 0.2mm
02/05:30am N 5-6 kts 16.0°c 1021.2 hPa 73% 0.2mm
02/05:00am NNE 4-6 kts 15.4°c 1021.0 hPa 77% 0.2mm
02/04:30am NNE 5-6 kts 15.4°c 1020.6 hPa 78% 0.2mm
02/04:00am N 4-5 kts 15.5°c 1020.6 hPa 79% 0.2mm
02/03:30am N 4-5 kts 14.9°c 1020.5 hPa 81% 0.2mm
02/03:00am N 4-5 kts 15.6°c 1020.4 hPa 78% 0.2mm
02/02:30am NW 4 kts 15.3°c 1020.5 hPa 79% 0.2mm
02/02:00am W 3-4 kts 15.0°c 1020.4 hPa 82% 0.2mm
02/01:30am CALM 0 kts 15.0°c 1020.6 hPa 82% 0.2mm
02/01:00am CALM 0 kts 15.0°c 1020.7 hPa 82% 0.2mm
02/12:30am CALM 0 kts 15.2°c 1020.7 hPa 80% 0.2mm
02/12:00am CALM 0 kts 15.3°c 1020.9 hPa 79% 0.2mm
Time Wind Speed Temp Pressure Rel. Hum Rain
01/11:30pm CALM 0 kts 15.2°c 1020.9 hPa 79% 0.2mm
01/11:00pm CALM 0 kts 15.0°c 1021.0 hPa 76% 0.2mm
01/10:30pm CALM 0 kts 15.3°c 1021.1 hPa 78% 0.2mm
01/10:00pm CALM 0 kts 15.0°c 1021.2 hPa 78% 0.2mm
01/09:30pm CALM 0 kts 14.7°c 1021.4 hPa 78% 0.2mm
01/09:00pm CALM 0 kts 14.8°c 1021.4 hPa 78% 0.2mm
01/08:30pm CALM 0 kts 15.7°c 1021.4 hPa 78% 0.2mm
01/08:00pm CALM 0 kts 15.0°c 1021.3 hPa 80% 0.2mm
01/07:30pm CALM 0 kts 14.5°c 1021.4 hPa 82% 0.2mm
01/07:00pm CALM 0 kts 15.7°c 1021.3 hPa 78% 0.2mm
01/06:30pm CALM 0 kts 15.6°c 1021.0 hPa 77% 0.2mm
01/06:00pm SW 4-5 kts 15.8°c 1020.8 hPa 76% 0.2mm
01/05:30pm SW 1-4 kts 16.0°c 1020.4 hPa 74% 0.2mm
01/05:00pm SW 5-6 kts 17.0°c 1020.1 hPa 72% 0.2mm
01/04:30pm SW 5-7 kts 17.2°c 1019.7 hPa 71% 0.2mm
01/04:00pm SW 8-10 kts 17.7°c 1019.4 hPa 70% 0.2mm
01/03:30pm SW 7-11 kts 18.4°c 1019.0 hPa 67% 0.2mm
01/03:00pm WSW 7-10 kts 18.8°c 1019.2 hPa 67% 0.2mm
01/02:30pm WSW 8-10 kts 18.6°c 1019.0 hPa 68% 0.2mm
01/02:00pm SW 9-13 kts 18.8°c 1018.9 hPa 67% 0.2mm
01/01:30pm WSW 11-17 kts 19.8°c 1018.9 hPa 64% 0.2mm
01/01:00pm WSW 10-15 kts 19.9°c 1018.8 hPa 64% 0.0mm
01/12:30pm SW 10-13 kts 19.6°c 1018.9 hPa 65% 0.0mm
01/12:00pm W 11-15 kts 19.6°c 1019.1 hPa 66% 0.0mm
01/11:30am WSW 11-15 kts 19.4°c 1019.1 hPa 66% 0.0mm
01/11:00am WSW 11-16 kts 19.9°c 1019.3 hPa 66% 0.0mm
01/10:30am WSW 12-19 kts 19.4°c 1019.6 hPa 66% 0.0mm
01/10:00am WSW 11-15 kts 19.4°c 1020.0 hPa 70% 0.0mm
01/09:30am WSW 9-14 kts 18.9°c 1020.0 hPa 71% 0.0mm
01/09:00am SW 8-10 kts 19.7°c 1020.0 hPa 69% 0.0mm
01/08:30am SW 8-10 kts 19.0°c 1019.9 hPa 70% 0.0mm
01/08:00am WSW 7-10 kts 19.3°c 1019.8 hPa 71% 1.2mm
01/07:30am WSW 8-10 kts 18.9°c 1019.5 hPa 72% 1.2mm
01/07:00am WSW 7-9 kts 18.4°c 1019.3 hPa 74% 1.2mm
01/06:30am WSW 7-9 kts 17.2°c 1019.0 hPa 79% 1.2mm
01/06:00am WSW 5-7 kts 17.4°c 1018.7 hPa 79% 1.2mm
01/05:30am SW 6-9 kts 17.6°c 1018.4 hPa 75% 1.2mm
01/05:00am SW 5-8 kts 17.0°c 1018.0 hPa 78% 1.2mm
01/04:30am SSW 6-8 kts 17.1°c 1017.6 hPa 78% 1.2mm
01/04:00am SW 9-14 kts 17.4°c 1017.4 hPa 76% 1.2mm
01/03:30am SW 6-8 kts 17.1°c 1017.5 hPa 75% 1.2mm
01/03:00am SSW 6-8 kts 17.3°c 1017.3 hPa 76% 1.2mm
01/02:30am SW 8-12 kts 17.4°c 1017.3 hPa 74% 1.2mm
01/02:00am SW 7-11 kts 17.4°c 1017.2 hPa 73% 1.2mm
01/01:30am SW 8-11 kts 17.5°c 1017.4 hPa 74% 1.2mm
01/01:00am SW 8-11 kts 17.7°c 1017.6 hPa 74% 1.2mm
01/12:30am SW 10-15 kts 18.0°c 1017.6 hPa 74% 1.2mm
01/12:00am SSW 8-13 kts 17.9°c 1017.8 hPa 76% 1.2mm